Home > Weather > Shymkent > Past weeks

Flag for Kazakhstan Weather for the Past 2 Weeks in Shymkent, Kazakhstan

Now
21 °F

Ice fog.


Feels Like: 14 °F
Forecast: 19 / 43 °F
Wind: 6 mph from Southeast

Location: Shymkent Airport

Current Time: Feb 14, 2016 at 8:02:02 AM

Latest Report: Feb 14, 2016 at 7:00 AM


Visibility: 2 mi

Pressure: 30.36 "Hg (28.46 "Hg at 506m altitude)

Humidity: 86%

Dew point: 18 °F

Location of ShymkentLocation

Historic Weather in Shymkent — Graph

°F

Shymkent Temperature Yesterday

Maximum temperature yesterday: 37 °F (at 3:00 PM)
Minimum temperature yesterday: 18 °F (at 5:00 AM)
Average temperature yesterday: 28 °F

High & Low Weather Summary for the Past Weeks

 TemperatureHumidityPressure
High68 °F (Feb 7, 4:00 PM)100% (Jan 30, 7:00 AM)30.54 "Hg (Jan 30, 7:00 AM)
Low18 °F (Feb 9, 11:30 PM)13% (Feb 7, 4:00 PM)29.86 "Hg (Feb 7, 8:30 PM)
Average34 °F76%30.29 "Hg
* Reported Jan 30 7:00 AM — Feb 14 7:00 AM, Shymkent, Weather by CustomWeather, © 2016

Note: Actual official high and low records may vary slightly from our data, if they occured in-between our weather recording intervals... More about our weather records

Advertising

Shymkent Weather History for the Previous 24 Hours

 ConditionsComfort  
Time TempWeatherWind HumidityBarometerVisibility
7:00 AM
Sun, Feb 14
21 °FIce fog.6 mph86%30.36 "Hg1 mi
6:30 AM23 °FIce fog.3 mph86%30.36 "Hg1 mi
6:00 AM21 °FIce fog.6 mph93%30.33 "Hg1 mi
5:30 AM21 °FIce fog.6 mph86%30.33 "Hg1 mi
5:00 AM21 °FIce fog.3 mph93%30.33 "Hg1 mi
4:30 AM21 °FIce fog.6 mph86%30.36 "Hg1 mi
3:30 AM21 °FIce fog.6 mph93%30.36 "Hg1 mi
3:00 AM21 °FIce fog.6 mph93%30.36 "Hg1 mi
2:30 AM21 °FIce fog.6 mph93%30.36 "Hg2 mi
2:00 AM21 °FIce fog.6 mph86%30.36 "Hg2 mi
1:30 AM25 °FIce fog.6 mph86%30.36 "Hg2 mi
1:00 AM25 °FIce fog.3 mph86%30.36 "Hg2 mi
12:30 AM25 °FIce fog.1 mph80%30.36 "Hg2 mi
12:00 AM25 °FIce fog.No wind80%30.36 "Hg2 mi
11:30 PM
Sat, Feb 13
25 °FIce fog.1 mph86%30.36 "Hg2 mi
11:00 PM27 °FIce fog.1 mph80%30.36 "Hg2 mi
10:30 PM27 °FIce fog.1 mph80%30.36 "Hg2 mi
10:00 PM27 °FIce fog.3 mph74%30.36 "Hg2 mi
9:30 PM27 °FIce fog.3 mph74%30.36 "Hg2 mi
9:00 PM28 °FClear.3 mph69%30.36 "Hg3 mi
8:30 PM28 °FClear.1 mph64%30.36 "Hg3 mi
8:00 PM30 °FClear.1 mph59%30.36 "Hg4 mi
7:30 PM30 °FClear.1 mph59%30.36 "Hg4 mi
7:00 PM30 °FClear.1 mph64%30.36 "Hg10 mi
6:30 PM32 °FSunny.3 mph55%30.36 "Hg10 mi
6:00 PM34 °FPassing clouds.3 mph51%30.36 "HgN/A
5:30 PM36 °FPassing clouds.3 mph44%30.36 "HgN/A
5:00 PM36 °FPassing clouds.6 mph56%30.36 "HgN/A
4:30 PM36 °FPassing clouds.3 mph56%30.36 "HgN/A
4:00 PM36 °FPassing clouds.3 mph52%30.36 "HgN/A
3:30 PM37 °FPassing clouds.3 mph48%30.33 "HgN/A
3:00 PM37 °FPassing clouds.3 mph45%30.33 "HgN/A
2:30 PM36 °FPassing clouds.6 mph48%30.33 "HgN/A
2:00 PM36 °FPassing clouds.6 mph48%30.36 "HgN/A
1:30 PM36 °FPassing clouds.6 mph48%30.36 "HgN/A
1:00 PM34 °FPassing clouds.8 mph48%30.36 "HgN/A
12:30 PM36 °FPassing clouds.6 mph44%30.36 "HgN/A
12:00 PM34 °FSunny.6 mph51%30.36 "Hg10 mi
11:30 AM34 °FPassing clouds.3 mph48%30.36 "HgN/A
11:00 AM32 °FClear.3 mph55%30.36 "Hg5 mi
10:30 AM30 °FIce fog.1 mph69%30.33 "Hg3 mi
10:00 AM28 °FIce fog.3 mph80%30.33 "Hg2 mi
9:30 AM25 °FIce fog.3 mph86%30.33 "Hg2 mi
9:00 AM21 °FIce fog.3 mph86%30.33 "Hg2 mi
8:30 AM21 °FIce fog.3 mph86%30.33 "Hg2 mi
8:00 AM18 °FIce fog.6 mph93%30.33 "Hg2 mi
Weather by CustomWeather, © 2016

See weather overviewHow to use our weather pages